Regional Weather Roundup
Issued by NWS

Home | Current Version | Previous Version | Graphics & Text | Print | Product List | Glossary On
Versions: 1 2 3 4 5 6 7 8 9 10 11 12 13 14 15 16 17 18 19 20 21 22 23 24 25 26 27 28 29 30 31 32 33 34 35 36 37 38 39 40 41 42 43 44 45 46 47 48 49 50
000
ASUS43 KIND 021009
RWRIN

WEATHER ROUNDUP FOR INDIANA
NATIONAL WEATHER SERVICE INDIANAPOLIS IN
500 AM EST MON MAR 02 2015

NOTE: "FAIR" INDICATES FEW OR NO CLOUDS BELOW 12,000 FEET WITH NO
SIGNIFICANT WEATHER AND/OR OBSTRUCTIONS TO VISIBILITY.

* - STATION DOES NOT REPORT WEATHER SUCH AS PRECIPITATION OR FOG.

+ - STATION NOT QUALITY CONTROLLED BY THE NATIONAL WEATHER SERVICE.
    USE DATA WITH CAUTION...ESPECIALLY DEWPOINT AND RELATIVE
    HUMIDITY OBSERVATIONS.

INZ001>003-010>013-019-020-021100-
NORTHWEST INDIANA

CITY           SKY/WX    TMP DP  RH WIND       PRES   REMARKS
KNOX *+          N/A     10   0  61 W7        30.41S WCI   0
LA PORTE +     MOCLDY    19  11  71 CALM      30.41R
MICHIGAN CITY+ CLEAR     18   9  68 W5        30.42R WCI  11
MONTICELLO +   MOCLDY    11   8  85 W6        30.44R WCI   2
RENSSELAER +   CLOUDY    10  10 100 W3        30.45R
VALPARAISO     PTCLDY    11   6  81 W9        30.42R WCI  -2

$$

LMZ046-743>745-021100-
SOUTHERN LAKE MICHIGAN

STATION/POSITION TIME  TEMP WIND        PRES
                       AIR  DIR/SP/G
                 (UTC) (F)  (DEG/KT/KT) (MB)
MICHIGAN CITY    1000   18  240/ 11/ 12   N/A

$$

INZ004-005-014>016-021>024-021100-
NORTH CENTRAL INDIANA

CITY           SKY/WX    TMP DP  RH WIND       PRES   REMARKS
GOSHEN         PTCLDY    10   5  80 W8        30.38R HAZE    WCI  -2
LOGANSPORT +   MOCLDY    10   9  92 NW6       30.44R WCI   1
PERU/GRISSOM   MOCLDY    10   6  83 W6        30.42R WCI   0
ROCHESTER +    MOCLDY    14  10  85 W5        30.42S WCI   6
SOUTH BEND     CLEAR     16   9  74 W8        30.39R WCI   5
WARSAW +       PTCLDY    12   9  85 W6        30.39R WCI   3

$$

INZ006>009-017-018-025>027-021100-
NORTHEAST INDIANA

CITY           SKY/WX    TMP DP  RH WIND       PRES   REMARKS
ANGOLA *+      CLEAR     16  12  86 W7        30.34R WCI   6
AUBURN +       CLEAR     18  12  79 W8        30.37R WCI   7
FORT WAYNE     PTCLDY    10   7  87 W9        30.40R WCI  -3
HUNTINGTON +   PTCLDY    13   7  78 W7        30.40R WCI   2

$$

INZ028-029-035-036-043>045-051>053-021100-
WEST CENTRAL INDIANA

CITY           SKY/WX    TMP DP  RH WIND       PRES   REMARKS
CRAWFORDSVL +  MOCLDY    15   7  71 NW6       30.46R WCI   6
GREENCASTLE +  MOCLDY    21  10  63 N8        30.46R WCI  12
LAFAYETTE      CLOUDY    15   9  76 W3        30.46R
TERRE HAUTE    MOCLDY    19  13  77 N5        30.48R WCI  12

$$

INZ030>032-037>040-046>048-054>057-064-065-021100-
CENTRAL INDIANA

CITY           SKY/WX    TMP DP  RH WIND       PRES   REMARKS
CP ATTERBURY + PTCLDY    23  18  80 NW7       30.46R WCI  15
FRANKFORT +    MOCLDY    18  12  77 W9        30.46R WCI   7
GREENWOOD *+   MOCLDY    21  10  63 NW12      30.44R WCI   9
INDIANAPOLIS   CLOUDY    20  11  68 NW16      30.44R WCI   6
-EAGLE CREEK   MOCLDY    18  12  77 NW13      30.45R WCI   5
KOKOMO *+      MOCLDY    12   7  79 W7        30.43R WCI   2
MARION +       PTCLDY    14   9  82 NW7       30.43R WCI   3
MT COMFORT *+  MOCLDY    19   7  58 NW15      30.44R WCI   5
SHELBYVILLE    MOCLDY    23  14  68 NW13      30.44R WCI  11
ZIONSVILLE +   MOCLDY    18  10  71 NW10      30.45R WCI   6

$$

INZ033-034-041-042-049-050-058-059-021100-
EAST CENTRAL INDIANA

CITY           SKY/WX    TMP DP  RH WIND       PRES   REMARKS
MUNCIE         PTCLDY    16  11  80 NW9       30.42R WCI   4

$$

INZ060-061-067>069-081>083-085>088-021100-
SOUTHWEST INDIANA

CITY           SKY/WX    TMP DP  RH WIND       PRES   REMARKS
EVANSVILLE     CLEAR     26  19  74 N6        30.51R WCI  19
HUNTINGBURG *+ CLEAR     25  18  74 N8        30.50R WCI  16
WASHINGTON +   PTCLDY    19  14  80 NW7       30.50R WCI  10

$$

INZ062-063-066-070>080-084-089>092-021100-
SOUTH CENTRAL AND SOUTHEAST INDIANA

CITY           SKY/WX    TMP DP  RH WIND       PRES   REMARKS
BLOOMINGTON    PTCLDY    20  15  81 NW3       30.45R
NORTH VERNON + FAIR      23  23 100 NW6       30.45R WCI  16
SEYMOUR +      CLEAR     23  18  80 NW5       30.46R WCI  17

$$




USA.gov is the U.S. government's official web portal to all federal, state and local government web resources and services.